User: anonymous   Login
Location: Unspecified
(0.0000°N, 0.0000°E)
Time: 09:15:06
(UTC+02:00)
Language:

Iridium 75 - Orbit

View from above orbital plane
View from above orbital plane
View from above satellite
View from above satellite

Ground track
Ground track

The orbit data is extracted from the following two-line orbital elements,

1 25346U 98032E   17149.78208483 +.00000149 +00000-0 +45966-4 0  9992
2 25346 086.3994 231.7937 0002370 095.3013 264.8453 14.34217940996760
Epoch (UTC): 29 May 2017 18:46:12
Eccentricity: 0.0002370
inclination: 86.3994°
perigee height: 776 km
apogee height: 779 km
right ascension of ascending node: 231.7937°
argument of perigee: 95.3013°
revolutions per day: 14.34217940
mean anomaly at epoch: 264.8453°
orbit number at epoch: 99676

The dashed part of the orbit path shows where the satellite is in the earth's shadow,  

DLR